AO-07 1 07530U 74089B 16238.42856551 -.00000029 00000-0 91223-4 0 9992 2 07530 101.5819 207.5173 0011896 174.2318 342.4467 12.53622667911795 FO-29 1 24278U 96046B 16238.38394976 -.00000003 00000-0 32633-4 0 9992 2 24278 98.5830 154.5398 0350964 23.6257 338.0569 13.53070403988875 RS-22 1 27939U 03042A 16238.88706105 .00000156 00000-0 36488-4 0 9999 2 27939 97.8986 27.9127 0014433 84.8068 34.5429 14.66439613690034 AO-73 1 39444U 13066AE 16238.81382367 .00000374 00000-0 53285-4 0 9999 2 39444 97.6747 289.3777 0059646 152.0551 208.3887 14.81139095147883 EO-79 1 40025U 14033R 16238.79003469 .00000329 00000-0 41827-4 0 9990 2 40025 97.9219 144.2130 0012217 189.2738 170.8255 14.88086949118551 XW-2A 1 40903U 15049E 16238.78315160 .00002574 00000-0 73590-4 0 9992 2 40903 97.4447 254.7901 0014042 242.8946 117.0866 15.36860088 52244 XW-2C 1 40906U 15049H 16238.84657301 .00000973 00000-0 57380-4 0 9998 2 40906 97.4547 244.4339 0016404 151.2891 208.9247 15.13769292 51540 LILACSAT-2 1 40908U 15049K 16238.84133189 .00000591 00000-0 37373-4 0 9999 2 40908 97.4613 244.2730 0017339 146.1310 214.1032 15.12653588 51513 UO-11 1 14781U 84021B 16238.74369010 .00000097 00000-0 18380-4 0 9996 2 14781 97.7428 288.5939 0010061 88.1442 272.0924 14.82781025746561 LO-19 1 20442U 90005G 16237.85034054 .00000006 00000-0 18157-4 0 9996 2 20442 098.5453 171.8447 0010867 307.4779 052.5416 14.32826374389125 AO-27 1 22825U 93061C 16238.84677258 .00000007 00000-0 20074-4 0 9999 2 22825 98.7658 195.5479 0009446 111.1346 249.0847 14.29965126195198 IO-26 1 22826U 93061D 16238.80543188 .00000011 00000-0 21804-4 0 9997 2 22826 98.7602 195.6225 0010029 103.2612 256.9689 14.30290716195352 GO-32 1 25397U 98043D 16238.79256002 -.00000005 00000-0 16442-4 0 9998 2 25397 98.5713 181.9443 0002200 114.0305 246.1104 14.23600619941766 NO-44 1 26931U 01043C 16238.76885426 -.00000020 00000-0 24351-4 0 9997 2 26931 67.0515 133.3935 0005651 262.0389 98.0071 14.30420639778099 SO-50 1 27607U 02058C 16238.51631097 .00000316 00000-0 45117-4 0 9991 2 27607 64.5575 309.0214 0060610 201.5727 158.3303 14.75197386735494 CO-55 1 27844U 03031E 16238.19957947 .00000052 00000-0 43069-4 0 9996 2 27844 98.6932 245.4968 0010748 119.8874 240.3373 14.21970561682251 CO-57 1 27848U 03031J 16238.68312935 .00000044 00000-0 40130-4 0 9993 2 27848 98.7029 246.0988 0010576 126.4416 233.7738 14.21594707682218 CO-65 1 32785U 08021C 16238.71959535 .00000286 00000-0 37074-4 0 9991 2 32785 97.5980 270.0264 0014690 69.6981 290.5813 14.87634324450969 PRISM 1 33493U 09002B 16238.81188828 .00000254 00000-0 28991-4 0 9991 2 33493 98.2074 102.1561 0015744 342.5793 17.4881 14.95074633411630 TISAT-1 1 36799U 10035E 16238.83238984 .00000518 00000-0 59857-4 0 9990 2 36799 98.0359 350.2110 0011873 211.4620 148.5888 14.89923920331790 ALMASAT-1 1 38078U 12006B 16238.26003465 .00041389 38052-5 53685-3 0 9999 2 38078 69.4450 200.0506 0371224 1.9800 358.2765 15.06523477239972 DUCHIFAT-1 1 40021U 14033M 16238.68418250 .00000570 00000-0 65885-4 0 9990 2 40021 97.9252 145.3562 0012744 187.8568 172.2452 14.89414095118604 NANOSATCBR1 1 40024U 14033Q 16238.69295188 .00000486 00000-0 57915-4 0 9998 2 40024 97.9226 144.6761 0012034 187.7121 172.3913 14.88809253118579 DTUSAT-2 1 40030U 14033W 16238.72135316 .00000338 00000-0 43238-4 0 9994 2 40030 97.9196 143.5368 0011809 182.9467 177.1682 14.87720195118518 ANTELSAT 1 40034U 14033AA 16238.63468985 .00000287 00000-0 50765-4 0 9995 2 40034 97.8938 125.0949 0059463 161.4722 198.8672 14.73445334117409 MET-2/21 1 22782U 93055A 16238.66660959 .00000021 00000-0 57644-5 0 9994 2 22782 82.5461 258.0931 0022570 176.3486 314.2033 13.83790034160829 NOAA-15 1 25338U 98030A 16238.48897956 .00000028 00000-0 30865-4 0 9993 2 25338 98.7846 242.7824 0010382 351.5150 8.5852 14.25748794950865 NOAA-18 1 28654U 05018A 16238.49147930 .00000002 00000-0 26411-4 0 9996 2 28654 99.1979 247.2263 0014353 176.7908 183.3357 14.12300629580518 NOAA-19 1 33591U 09005A 16238.52671771 .00000113 00000-0 86643-4 0 9997 2 33591 99.0464 195.8911 0014623 27.7588 332.4360 14.12099804388921 HUBBLE 1 20580U 90037B 16238.90416071 .00000687 00000-0 31777-4 0 9992 2 20580 28.4695 158.2926 0002667 234.5783 201.9726 15.08463662245646 ISS 1 25544U 98067A 16238.96778683 .00006394 00000-0 10300-3 0 9993 2 25544 51.6447 69.8230 0003005 237.7530 274.3566 15.54328087 15846 CO-58 1 28895U 05043F 16237.75271753 .00000178 00000-0 43213-4 0 9993 2 28895 97.8378 48.2610 0017020 6.7694 353.3736 14.63239340577137 AAUSAT2 1 32788U 08021F 16238.06076292 .00000925 00000-0 93342-4 0 9992 2 32788 97.5980 278.6419 0013178 46.4119 313.8192 14.93345069451472 DO-64 1 32789U 08021G 16238.74877031 .00001434 00000-0 10928-3 0 9992 2 32789 97.6008 296.7486 0014115 34.5264 325.6876 15.03556589452453 CO-66 1 32791U 08021J 16238.77076660 .00000480 00000-0 55423-4 0 9997 2 32791 97.5985 273.4739 0014925 58.9856 301.2826 14.89860637451154 RS-30 1 32953U 08025A 16238.82300751 .00000021 00000-0 81791-4 0 9996 2 32953 82.4998 63.3413 0018561 208.3617 151.6454 12.43071007374726 JUGNU 1 37839U 11058B 16237.89116273 .00000311 00000-0 24147-4 0 9998 2 37839 19.9616 87.0103 0018986 157.4364 322.0468 14.12549879251750 SRMSAT 1 37841U 11058D 16237.95336231 .00000311 00000-0 25846-4 0 9993 2 37841 019.9717 122.2283 0011900 067.9449 039.1911 14.10548170251316 AO-71 1 37854U 11061E 16238.76390988 .00002362 00000-0 13736-3 0 9992 2 37854 101.6995 316.4814 0172344 228.4246 130.2082 15.02497995262542 HRBE 1 37855U 11061F 16238.76632874 .00002339 00000-0 13351-3 0 9993 2 37855 101.7116 314.5057 0185908 233.1610 125.2426 15.01422100262434 HORYU-2 1 38340U 12025D 16238.76992441 .00000294 00000-0 51695-4 0 9995 2 38340 98.3603 226.5788 0012364 145.5908 214.6103 14.75091975229733 RS-40 1 38735U 12041C 16238.79198505 .00000014 00000-0 28219-4 0 9999 2 38735 82.4786 148.3821 0016442 315.8796 44.0971 12.42572678185009 BEESAT-3 1 39134U 13015E 16238.77113266 .00001543 00000-0 89197-4 0 9994 2 39134 64.8705 98.9276 0012758 302.0561 57.9325 15.16290304184660 BEESAT-2 1 39136U 13015G 16238.75568245 .00002059 00000-0 11284-3 0 9999 2 39136 64.8716 105.8373 0012800 306.6096 53.4347 15.13891081184538 ZACUBE-1 1 39417U 13066B 16238.15202452 .00000296 00000-0 44182-4 0 9991 2 39417 97.6736 288.0561 0060318 156.3545 204.0461 14.80456463148978 TRITON-1 1 39427U 13066M 16238.30949832 .00000208 00000-0 41661-4 0 9991 2 39427 97.6631 267.1847 0113818 215.5249 143.8342 14.67240500147651 GOMX-1 1 39430U 13066Q 16238.67646567 .00000178 00000-0 41946-4 0 9996 2 39430 97.6665 254.3324 0150829 256.1748 102.2622 14.58652709146857 LO-74 1 39440U 13066AA 16238.06539630 .00000268 00000-0 44847-4 0 9995 2 39440 97.6678 279.5898 0081164 179.4644 180.6668 14.75214594148435 SPROUT 1 39770U 14029E 16238.74555176 .00000537 00000-0 68330-4 0 9991 2 39770 97.8727 335.2026 0008619 208.3550 151.7222 14.85544046122260 EO-80 1 40032U 14033Y 16238.68329903 .00000348 00000-0 44330-4 0 9993 2 40032 97.9202 143.5079 0011758 183.4938 176.6198 14.87653900118503 VELOX-1 1 40057U 14034E 16238.85359524 .00000434 00000-0 69510-4 0 9995 2 40057 98.1934 328.6988 0009767 286.7230 73.2900 14.76787621116168 DAURIA DX 1 1 40071U 14037C 16238.80415157 .00000181 00000-0 30829-4 0 9994 2 40071 98.3318 332.3984 0007337 286.9299 73.1107 14.80856661115251 UKUBE-1 1 40074U 14037F 16238.83604701 .00000409 00000-0 57234-4 0 9997 2 40074 98.3367 334.8661 0003451 290.7960 69.2891 14.83155149115395 HODOYOSHI-1 1 40299U 14070B 16238.78717904 .00001038 00000-0 49128-4 0 9999 2 40299 97.4268 319.7508 0014919 51.8708 61.9564 15.21499426100014 CHUBUSAT-1 1 40300U 14070C 16238.80904088 .00001271 00000-0 61789-4 0 9992 2 40300 97.4219 317.8060 0022623 57.0591 90.4404 15.20027130 99907 QSAT-EOS 1 40301U 14070D 16238.83034784 .00002549 00000-0 11510-3 0 9998 2 40301 97.4162 317.2528 0030462 56.0528 82.9103 15.21483230 99895 FIREBIRD FU3 1 40377U 15003B 16238.84957666 .00002373 00000-0 11011-3 0 9993 2 40377 99.0921 358.9384 0141752 259.6150 98.9073 15.12975130 86319 FIREBIRD FU4 1 40378U 15003C 16238.84547557 .00002416 00000-0 11189-3 0 9992 2 40378 99.0923 358.9510 0141974 259.5669 98.9531 15.12984735 86313 GRIFEX 1 40379U 15003D 16238.86525990 .00002075 00000-0 10098-3 0 9991 2 40379 99.0929 357.9049 0146170 263.7754 94.6803 15.11124898 86254 NO-84 1 40654U 15025D 16238.11593061 .00005178 00000-0 11682-3 0 02083 2 40654 055.0000 113.7659 0199913 244.0229 114.0136 15.26900897034569 NO-83 1 40655U 15025E 16238.11639772 .00006463 00000-0 13075-3 0 02259 2 40655 054.9868 104.8995 0179570 248.2508 109.9360 15.32452709034661 DEORBITSAIL 1 40719U 15032E 16237.77777563 .00000529 00000-0 84838-4 0 9991 2 40719 98.0082 128.7804 0017436 21.1190 339.0735 14.75639885 60603 NUDT-PHONESAT 1 40900U 15049B 16238.81483615 .00002732 00000-0 14005-3 0 9995 2 40900 97.4462 245.3297 0015342 167.5842 192.5773 15.17313383 51631 XW-2D 1 40907U 15049J 16238.84563128 .00001042 00000-0 61107-4 0 9992 2 40907 97.4513 244.2838 0015834 149.5159 210.6996 15.13821377 51543 XW-2F 1 40910U 15049M 16238.79051785 .00001483 00000-0 84211-4 0 9991 2 40910 97.4542 244.4947 0016873 148.7471 211.4768 15.14354489 51434 XW-2B 1 40911U 15049N 16238.84595416 .00001019 00000-0 59883-4 0 9994 2 40911 97.4561 244.4984 0015721 149.7059 210.5085 15.13801554 51443 DCBB 1 40912U 15049P 16238.85604259 .00001568 00000-0 84088-4 0 9996 2 40912 97.4536 245.5345 0017152 143.4720 338.0686 15.16323067 51517 TW-1C 1 40926U 15051B 16238.86493147 .00006909 00000-0 18937-3 0 9990 2 40926 97.2699 275.0498 0014610 152.0857 325.2723 15.37507280 51468 TW-1A 1 40928U 15051D 16238.90514037 .00002959 00000-0 92790-4 0 9990 2 40928 97.2638 273.8481 0014233 169.6149 314.4802 15.33750291 51400 IO-86 1 40931U 15052B 16238.38490872 .00000642 00000-0 30847-6 0 9991 2 40931 5.9998 181.8185 0013712 18.3243 341.7346 14.76475134 49177 GomX-3 1 40949U 98067HA 16238.84296419 .00103071 00000-0 33737-3 0 9997 2 40949 51.6271 31.4250 0001504 271.9219 88.1614 15.89795257 51109 LQSat 1 40958U 15057A 16238.80889464 .00000065 00000-0 18065-4 0 9996 2 40958 98.0105 312.7726 0017039 294.1772 65.7643 14.72890753 47638 AO-85 1 40967U 15058D 16238.41209634 .00000536 00000-0 76922-4 0 02340 2 40967 064.7784 035.9191 0195685 183.3093 176.6743 14.75102622033485 ATHENOXAT-1 1 41168U 15077C 16238.13712465 .00002493 00000-0 10826-3 0 9997 2 41168 14.9856 170.2239 0012773 234.5435 250.1996 15.10245795 38197 ChubuSat-2 1 41338U 16012B 16237.95350248 .00000536 00000-0 35770-4 0 9994 2 41338 031.0024 193.2987 0013921 007.2973 352.7863 14.99455250028484 ChubuSat-3 1 41339U 16012C 16238.25691474 .00000490 00000-0 31930-4 0 9991 2 41339 31.0089 191.0173 0013313 15.4285 344.6769 14.99682311 28509 Horyu-4 1 41340U 16012D 16238.27522012 .00000812 00000-0 56726-4 0 9994 2 41340 31.0044 190.1276 0014204 22.1314 337.9933 15.00132847 28532 OUFTI-1 1 41458U 16025C 16238.73510617 .00002515 00000-0 14382-3 0 9990 2 41458 98.2021 253.1939 0177297 195.4584 164.1184 15.01394419 18211 e-st@r-II 1 41459U 16025D 16238.26934725 .00002195 00000-0 12617-3 0 9992 2 41459 98.2015 252.6952 0177613 197.0400 162.4820 15.01354414 18142 AAUSAT4 1 41460U 16025E 16238.72187622 .00003090 00000-0 17574-3 0 9993 2 41460 98.2085 253.2052 0174606 195.0562 164.5424 15.01704057 18218 MinXSS 1 41474U 98067HU 16238.80789211 .00022560 00000-0 27582-3 0 9998 2 41474 51.6421 68.3325 0001622 65.6931 294.4232 15.60318189 15799 CADRE 1 41475U 98067HV 16238.79601628 .00047842 00000-0 51665-3 0 9991 2 41475 51.6422 67.4818 0001654 110.2611 249.9084 15.62954497 15739 NODES 1 1 41477U 98067HX 16238.78562086 .00016511 00000-0 21410-3 0 9990 2 41477 51.6400 68.9242 0001371 52.4890 307.6227 15.58995416 15693 NODES 2 1 41478U 98067HY 16238.78796165 .00016706 00000-0 21700-3 0 9996 2 41478 51.6399 68.9392 0001324 54.9214 305.1903 15.58939259 15699 NuSat1-LUSEX 1 41557U 16033B 16238.84403388 .00001942 00000-0 79147-4 0 9991 2 41557 97.4926 312.1231 0014382 334.4766 161.8244 15.25625880 13377 NuSat2 1 41558U 16033C 16238.85195804 .00001902 00000-0 77896-4 0 9999 2 41558 97.4952 312.1388 0013768 333.3181 162.2121 15.25485095 13377 Lapan A3 1 41603U 16040E 16238.83975944 .00000246 00000-0 15013-4 0 9990 2 41603 97.5042 297.6041 0014677 29.4313 60.7124 15.19097685 9818 Swayam 1 41607U 16040J 16237.90234142 .00002358 00000-0 11500-3 0 9991 2 41607 097.5027 296.6489 0015781 036.5166 323.7141 15.19204757009598 /EX
